EW1895 Weather Reports


Display with metric or nautical units.
time (UTC)temp
F
wind
direction
speed
MPH
gust
MPH
rain 1hr
in
rain 24hr
in
rain mn
in
humidity
%
barometer
mb
20260831031513 76 194 0.0 0.0 0.00 0.00 0.00 87 1019.6
20260831030013 76 194 0.0 0.0 0.00 0.00 0.00 87 1019.6
20260831024515 76 194 0.0 0.0 0.00 0.00 0.00 87 1019.7
20260831023012 76 194 0.0 0.0 0.00 0.00 0.00 88 1019.7
20260831021523 76 194 0.0 0.0 0.00 0.00 0.00 88 1019.6
20260831020016 77 194 0.0 0.0 0.00 0.00 0.00 88 1019.6
20260831014523 77 194 0.0 0.0 0.00 0.00 0.00 87 1019.7
20260831013012 77 194 0.0 0.0 0.00 0.00 0.00 87 1019.7
20260831011514 77 194 0.0 0.0 0.00 0.00 0.00 87 1019.6
20260831010012 77 193 0.0 0.0 0.00 0.00 0.00 85 1019.6
20260831004511 78 194 0.0 0.0 0.00 0.00 0.00 84 1019.4
20260831003010 78 194 0.0 0.0 0.00 0.00 0.00 83 1019.1
20260831001510 79 194 0.0 0.0 0.00 0.00 0.00 81 1018.9
20260831000009 80 193 0.0 0.0 0.00 0.00 0.00 80 1018.9
20260830234510 81 194 0.0 0.0 0.00 0.00 0.00 78 1018.9
20260830233009 82 194 0.0 0.0 0.00 0.00 0.00 76 1018.9
20260830231511 83 194 0.0 0.0 0.00 0.00 0.00 73 1019.0
20260830230010 83 194 0.0 0.0 0.00 0.00 0.00 71 1019.0
20260830224510 84 194 0.0 0.0 0.00 0.00 0.00 70 1018.8
20260830223010 84 194 0.0 0.0 0.00 0.00 0.00 70 1018.8
20260830221509 84 194 0.0 3.0 0.00 0.00 0.00 67 1018.9
20260830220009 85 194 0.0 0.0 0.00 0.00 0.00 67 1019.0
20260830214508 85 194 0.0 0.0 0.00 0.00 0.00 66 1018.9
20260830213014 86 196 0.0 1.0 0.00 0.00 0.00 63 1018.9
20260830211509 86 196 0.0 3.0 0.00 0.00 0.00 63 1018.8
20260830210009 87 139 0.0 1.0 0.00 0.00 0.00 61 1018.7
20260830204506 88 126 0.0 4.0 0.00 0.00 0.00 62 1018.7
20260830203005 89 238 0.0 1.0 0.00 0.00 0.00 59 1019.0
20260830201504 90 234 0.0 5.0 0.00 0.00 0.00 57 1019.1
20260830200005 91 168 0.0 3.0 0.00 0.00 0.00 56 1019.3
20260830194600 91 188 0.0 4.0 0.00 0.00 0.00 57 1019.5
20260830193056 90 184 0.0 0.0 0.00 0.00 0.00 58 1019.8
20260830191555 90 273 0.0 4.0 0.00 0.00 0.00 58 1020.0
20260830190124 90 122 0.0 5.0 0.00 0.00 0.00 59 1020.4
20260830184607 91 205 0.0 3.0 0.00 0.00 0.00 58 1020.5
20260830183059 89 241 0.0 1.0 0.00 0.00 0.00 61 1020.8
20260830181550 89 159 0.0 0.0 0.00 0.00 0.00 60 1021.1
20260830180047 89 104 0.0 3.0 0.00 0.00 0.00 61 1021.3
20260830174557 90 199 0.0 0.0 0.00 0.00 0.00 59 1021.4
20260830173039 88 199 0.0 1.0 0.00 0.00 0.00 63 1021.6
20260830171536 88 173 0.0 2.0 0.00 0.00 0.00 62 1021.8
20260830170033 87 254 0.0 1.0 0.00 0.00 0.00 64 1021.8
20260830164531 87 294 0.0 1.0 0.00 0.00 0.00 65 1022.1
20260830163032 87 294 0.0 1.0 0.00 0.00 0.00 64 1022.2
20260830161527 85 182 0.0 2.0 0.00 0.00 0.00 67 1022.4
20260830160030 86 106 0.0 1.0 0.00 0.00 0.00 68 1022.6
20260830154519 84 169 0.0 4.0 0.00 0.00 0.00 71 1022.6
20260830153015 83 172 0.0 3.0 0.00 0.00 0.00 73 1022.7
20260830151513 82 168 0.0 5.0 0.00 0.00 0.00 77 1022.8
20260830150012 81 122 0.0 3.0 0.00 0.00 0.00 76 1022.8
20260830144506 78 146 0.0 4.0 0.00 0.00 0.00 83 1022.7
20260830143002 77 144 0.0 2.0 0.00 0.00 0.00 86 1022.8
20260830141608 75 144 0.0 1.0 0.00 0.00 0.00 90 1022.8
20260830140058 75 198 0.0 1.0 0.00 0.00 0.00 92 1022.8
20260830134553 73 197 0.0 2.0 0.00 0.00 0.00 95 1023.1
20260830133054 73 41 0.0 2.0 0.00 0.00 0.00 96 1023.5
20260830131549 73 41 0.0 0.0 0.00 0.00 0.00 97 1023.5
20260830130047 72 40 0.0 0.0 0.00 0.00 0.00 96 1023.6
20260830124544 71 40 0.0 0.0 0.00 0.00 0.00 97 1023.7
20260830123042 71 40 0.0 0.0 0.00 0.00 0.00 97 1023.6
20260830121541 70 40 0.0 0.0 0.00 0.00 0.00 97 1023.7
20260830120037 69 40 0.0 0.0 0.00 0.00 0.00 96 1023.8
20260830114534 68 40 0.0 0.0 0.00 0.00 0.00 96 1023.7
20260830113031 68 40 0.0 0.0 0.00 0.00 0.00 96 1023.5
20260830111530 68 40 0.0 0.0 0.00 0.00 0.00 96 1023.4
20260830110029 67 40 0.0 0.0 0.00 0.00 0.00 96 1023.4
20260830104551 67 40 0.0 0.0 0.00 0.00 0.00 96 1023.3
20260830103030 67 40 0.0 0.0 0.00 0.00 0.00 96 1023.2
20260830101529 67 40 0.0 0.0 0.00 0.00 0.00 96 1023.1
20260830100028 66 40 0.0 0.0 0.00 0.00 0.00 96 1022.9
20260830094530 66 40 0.0 0.0 0.00 0.00 0.00 96 1023.0
20260830093033 66 40 0.0 0.0 0.00 0.00 0.00 96 1022.8
20260830091526 66 40 0.0 0.0 0.00 0.00 0.00 96 1022.8
20260830090024 66 40 0.0 0.0 0.00 0.00 0.00 96 1022.9
20260830084524 66 40 0.0 0.0 0.00 0.00 0.00 95 1022.9
20260830083035 66 40 0.0 0.0 0.00 0.00 0.00 95 1022.9
20260830081522 66 40 0.0 0.0 0.00 0.00 0.00 95 1022.8
20260830080021 66 40 0.0 0.0 0.00 0.00 0.00 95 1022.9
20260830074520 66 40 0.0 0.0 0.00 0.00 0.00 95 1022.9
20260830073019 66 40 0.0 0.0 0.00 0.00 0.00 95 1023.0
20260830071524 66 40 0.0 0.0 0.00 0.00 0.00 95 1023.1
20260830070016 66 40 0.0 0.0 0.00 0.00 0.00 95 1023.1
20260830064517 67 40 0.0 0.0 0.00 0.00 0.00 95 1023.2
20260830063014 67 40 0.0 0.0 0.00 0.00 0.00 95 1023.3
20260830061511 67 40 0.0 0.0 0.00 0.00 0.00 94 1023.5
20260830060014 67 40 0.0 0.0 0.00 0.00 0.00 95 1023.6
20260830054509 67 40 0.0 0.0 0.00 0.00 0.00 95 1023.4
20260830053021 67 40 0.0 0.0 0.00 0.00 0.00 94 1023.4
20260830051517 67 40 0.0 0.0 0.00 0.00 0.00 94 1023.5
20260830050008 67 40 0.0 0.0 0.00 0.00 0.00 94 1023.5
20260830044513 68 40 0.0 0.0 0.00 0.00 0.00 94 1023.6
20260830043008 68 40 0.0 0.0 0.00 0.00 0.00 94 1023.7
20260830041517 68 40 0.0 0.0 0.00 0.00 0.00 94 1023.6
20260830040008 68 40 0.0 0.0 0.00 0.00 0.00 93 1023.5
20260830034508 68 40 0.0 0.0 0.00 0.00 0.00 93 1023.2
20260830033007 68 40 0.0 0.0 0.00 0.00 0.00 93 1023.1